Theta_e
337 338 340 342 343 345 346 346 344 342 342 343 343 345 345 347 347 346 342 346 350 349 349 348 346 344 342 339 336 334 332 331 329 327 326 326 327 328 327 326 326 325 324
336 335 336 338 341 344 344 345 344 342 339 339 340 342 343 345 347 344 345 344 346 350 350 350 349 347 345 342 338 336 335 333 331 328 326 326 326 327 327 327 325 325 324
335 334 334 337 339 341 341 341 340 339 338 339 339 340 341 343 343 346 346 344 345 351 350 352 350 349 347 346 342 340 339 336 334 331 328 327 326 327 326 326 325 325 324
338 334 334 336 340 341 340 339 338 337 337 336 336 337 338 342 342 341 346 345 344 349 350 351 351 350 349 347 347 345 342 341 338 334 331 329 327 327 326 325 325 325 324
340 339 338 340 342 342 341 338 339 337 336 336 338 339 340 341 342 344 343 345 344 345 347 347 349 349 348 349 348 347 346 345 341 337 334 331 328 326 326 325 325 325 324
341 340 340 341 343 343 341 340 338 337 336 338 337 338 340 341 341 341 341 344 344 344 345 344 345 348 348 350 349 348 348 346 344 340 336 333 328 325 324 324 326 324 324
342 341 341 341 342 339 340 340 338 337 336 338 336 334 335 338 340 340 340 339 339 344 344 345 343 344 346 347 347 347 347 347 345 342 338 334 329 326 324 324 325 324 323
343 342 341 339 341 335 336 335 337 336 336 336 333 331 328 331 335 336 337 337 336 338 340 343 343 343 343 345 344 343 345 346 345 340 337 332 329 324 323 324 322 322 322
346 345 343 341 339 332 330 331 332 333 331 336 336 333 325 325 327 333 333 337 337 334 335 343 343 342 343 342 342 342 341 342 343 341 338 333 328 323 323 321 321 321 320
342 347 343 337 334 332 330 330 332 331 334 333 335 337 336 334 329 326 330 333 334 333 335 341 341 342 341 341 341 340 339 340 341 342 337 332 328 324 321 320 320 319 318
336 339 337 335 334 332 333 334 332 330 332 334 337 334 333 332 329 329 326 328 333 333 335 336 339 338 338 338 338 337 337 338 339 337 334 331 326 322 319 319 318 317 317
331 333 336 334 333 333 333 332 330 329 329 334 337 337 335 332 330 328 325 325 327 330 333 334 333 334 334 336 338 337 334 334 332 331 330 327 323 319 317 317 316 315 315
327 329 331 331 331 331 332 331 328 328 328 333 336 337 336 336 334 332 329 323 325 331 331 333 331 332 332 334 336 336 333 329 327 325 323 320 318 315 313 311 311 311 312
325 327 328 328 328 329 329 329 328 327 329 333 335 336 337 336 333 332 329 323 323 327 329 329 330 330 332 332 331 329 327 324 322 320 318 316 313 311 309 308 308 307 308
323 322 323 324 325 326 328 327 326 326 327 329 334 337 337 337 335 333 330 329 328 322 323 329 326 329 329 328 327 325 323 322 320 317 315 312 310 308 307 306 306 307 307
318 320 321 321 322 322 325 326 324 325 324 326 331 331 333 336 337 335 332 329 329 328 325 330 326 323 323 323 325 322 322 321 318 315 313 310 307 306 305 305 305 305 305
315 316 318 319 321 321 321 324 324 328 325 324 324 325 328 332 333 334 332 328 326 327 326 323 322 321 320 320 320 319 319 317 316 313 311 308 305 304 304 305 304 304 304
311 312 313 315 318 321 320 320 322 323 324 324 326 325 326 328 332 334 332 329 325 326 326 320 318 318 318 320 317 316 314 314 314 313 311 307 305 305 304 305 304 304 303
308 309 311 314 316 318 320 319 320 320 321 322 323 326 326 328 328 330 330 330 327 327 327 322 318 318 315 316 313 312 311 312 312 313 310 307 305 305 305 305 304 305 303
306 306 307 309 311 313 315 316 315 316 317 317 320 325 326 326 328 328 328 329 329 326 326 323 321 318 316 314 314 311 310 311 311 312 312 307 306 305 306 306 305 305 301
303 304 305 306 307 307 310 309 309 310 311 312 313 316 323 323 323 322 326 327 328 326 323 322 320 318 314 312 312 313 312 310 311 312 311 309 307 305 304 303 304 301 300
300 301 302 302 302 303 303 304 306 305 307 308 309 311 314 318 321 317 316 318 324 326 324 322 320 318 317 316 315 312 310 308 307 313 310 308 307 306 304 302 304 303 300
298 298 299 299 299 301 300 300 302 303 303 305 307 309 310 314 315 318 316 315 314 313 319 324 322 321 320 319 315 312 312 312 310 309 310 308 306 306 306 303 303 302 300
295 296 296 297 297 298 299 298 299 300 301 303 305 307 308 309 310 311 312 317 322 323 324 324 326 325 325 321 318 316 313 311 310 309 311 309 306 307 306 307 302 301 300
295 294 295 296 296 297 297 297 298 298 298 299 301 306 307 307 303 299 307 310 314 321 319 312 314 311 308 309 315 315 311 310 308 308 307 311 305 306 307 306 304 301 300
295 296 295 295 296 296 296 296 296 297 296 296 300 304 302 304 299 295 302 306 308 314 322 319 316 311 310 311 308 318 314 313 310 307 309 307 304 303 307 304 306 305 303
Wind_Speed
4 3 3 3 2 2 3 4 5 5 6 6 5 6 7 6 5 3 3 11 13 16 15 14 14 14 13 10 9 8 7 6 5 3 1 2 4 5 6 6 7 7 7
4 4 3 3 3 4 4 5 5 4 5 5 6 5 7 6 6 5 3 5 10 14 15 15 16 15 13 11 9 9 10 8 7 5 3 0 2 4 6 6 6 6 6
5 4 4 4 5 4 5 2 4 3 5 3 7 5 5 7 7 6 5 4 4 13 15 16 14 14 13 12 12 13 11 10 9 7 5 2 1 4 5 6 7 7 8
7 6 5 6 2 2 2 3 2 3 4 3 4 5 4 4 5 5 4 4 4 5 12 15 16 14 15 13 15 15 12 12 13 12 9 5 3 2 5 6 7 7 8
7 6 5 3 3 3 2 1 1 2 2 3 3 4 4 4 4 4 5 6 6 7 5 11 15 15 13 14 15 15 14 13 14 14 12 10 5 2 4 6 7 8 8
8 7 5 5 5 1 2 2 3 3 4 3 3 4 3 4 4 4 5 4 5 7 6 7 5 7 12 14 14 15 14 11 11 16 14 11 6 3 4 6 9 9 9
8 8 3 1 4 4 3 4 2 2 3 3 1 3 3 5 5 3 3 4 6 5 6 6 4 4 5 12 9 9 9 11 8 7 14 11 6 2 4 6 8 9 11
5 5 5 5 8 7 6 5 6 5 5 7 4 1 2 3 2 1 1 4 6 3 4 6 6 6 4 3 1 4 5 6 7 3 16 12 7 2 3 5 7 9 10
3 7 8 8 10 9 8 8 8 8 5 2 5 4 1 3 1 0 0 2 3 2 3 3 4 4 4 3 1 1 2 4 5 7 17 12 8 4 2 4 6 8 9
2 1 4 6 9 8 10 11 7 5 4 4 3 5 2 3 3 2 1 1 1 2 1 1 3 3 4 2 3 2 3 4 5 17 15 11 8 4 3 4 5 7 9
4 3 6 10 7 7 5 4 7 5 3 3 3 2 2 1 1 2 3 2 1 2 3 2 4 4 4 3 3 2 3 1 15 16 13 10 8 4 4 5 6 7 9
6 8 7 5 3 4 5 6 6 6 3 1 2 3 3 3 4 3 3 2 1 1 2 2 4 4 4 3 4 5 6 10 13 13 11 12 8 5 4 5 6 9 11
4 7 5 4 3 6 6 6 5 4 1 2 3 3 2 3 2 2 3 2 2 2 1 0 2 3 4 3 4 7 10 12 11 13 12 11 9 4 4 4 7 9 10
3 4 4 4 4 4 4 4 3 3 3 3 4 4 3 4 4 3 3 4 2 3 3 3 1 3 3 4 7 12 8 13 13 12 12 10 7 5 3 6 8 9 9
3 4 3 4 5 5 6 6 5 5 3 4 5 6 5 5 4 5 4 3 4 5 7 6 3 5 5 5 6 7 8 12 11 11 10 8 6 4 3 6 7 8 8
6 7 6 5 5 5 5 5 4 5 5 4 5 7 7 4 5 4 5 5 4 5 4 3 2 4 4 4 7 7 7 10 9 9 9 7 4 2 5 7 7 7 9
5 5 6 6 5 5 6 5 5 5 4 4 5 7 8 6 5 4 4 3 5 6 6 2 2 3 4 7 6 6 6 6 5 8 9 8 4 2 5 6 6 8 9
5 7 7 6 7 4 4 5 6 6 6 6 7 6 10 7 6 4 2 6 4 4 2 7 2 3 3 7 7 8 5 4 4 7 8 8 6 2 2 3 5 8 8
6 7 8 8 8 8 6 5 4 5 5 5 6 6 7 9 7 5 4 3 2 4 3 3 4 2 2 4 4 4 4 4 4 7 7 7 6 3 1 1 4 6 7
7 7 6 9 8 9 8 7 8 7 6 6 6 7 4 7 8 6 5 3 2 3 5 5 5 4 3 3 4 4 4 3 4 4 6 5 5 4 4 1 3 5 6
7 8 7 8 7 8 7 8 8 7 7 6 5 7 5 6 10 9 5 6 4 4 4 5 5 4 4 4 9 5 5 5 5 4 4 4 4 3 3 3 4 2 5
7 8 8 8 9 8 11 13 8 8 9 6 6 6 5 7 5 8 11 10 6 6 7 5 4 6 8 5 7 6 5 5 4 7 6 4 5 4 3 3 4 1 4
7 8 8 7 9 9 13 13 14 8 9 8 7 6 5 4 6 5 7 8 9 11 9 9 8 8 9 10 9 8 9 5 3 2 6 3 4 5 3 4 6 3 3
7 9 10 10 9 8 13 13 16 10 8 10 9 8 6 7 6 5 6 7 7 6 9 8 10 9 8 12 11 11 8 4 3 2 4 2 3 3 2 3 5 4 2
7 8 9 12 11 9 11 13 14 11 10 10 10 8 7 7 7 2 4 7 8 8 7 12 10 10 14 17 13 10 9 8 4 4 5 2 3 3 2 2 3 4 4
10 9 12 11 14 11 10 12 13 8 10 9 9 9 6 7 4 5 2 6 6 8 8 2 5 5 14 16 21 12 12 10 4 2 6 5 3 3 4 2 2 4 3
Wind_Direction
201 194 217 216 222 222 231 250 247 240 249 259 258 268 277 273 250 249 226 239 214 206 215 212 216 214 211 208 209 212 214 208 203 184 186 57 35 16 15 21 19 13 11
199 200 210 216 225 221 224 231 239 265 260 255 270 262 268 279 269 240 234 242 237 206 214 212 218 222 215 213 215 224 225 226 225 209 216 117 13 4 3 7 13 8 357
208 191 202 215 232 211 242 264 277 258 281 280 270 274 278 274 296 273 224 222 238 204 210 220 225 221 224 213 205 225 223 219 224 222 218 172 0 342 348 352 357 356 354
195 194 211 221 217 222 245 213 252 283 278 284 291 280 277 268 275 278 270 222 206 206 217 222 229 223 222 216 213 221 234 215 214 214 207 198 221 301 340 349 344 347 347
199 204 210 218 222 209 175 268 267 246 269 281 270 305 297 279 266 281 286 246 225 211 212 230 235 236 226 217 217 229 235 224 210 209 204 198 210 277 325 333 335 347 347
200 203 200 197 189 164 111 167 205 211 235 238 267 254 248 250 247 244 248 255 230 229 222 230 242 255 231 229 229 231 237 238 219 211 203 192 193 233 306 337 341 346 343
202 210 224 212 99 139 127 153 148 220 260 206 232 244 234 228 249 254 252 244 255 242 226 237 229 238 237 246 253 260 252 257 243 222 185 176 188 227 333 348 342 345 348
223 208 188 160 158 136 165 175 166 196 207 185 190 137 270 322 292 224 274 247 248 252 241 233 226 233 238 245 271 290 290 279 267 208 163 163 178 158 5 352 350 351 349
230 199 169 167 163 162 173 192 201 190 196 93 208 137 109 234 339 88 335 276 218 216 252 218 208 212 203 188 143 302 343 331 314 152 155 165 163 138 52 8 0 354 349
36 6 84 157 170 184 183 205 199 223 137 190 123 230 322 131 195 306 254 350 72 103 71 147 141 134 139 131 108 28 12 11 125 143 150 157 148 123 54 23 4 354 342
11 309 98 191 184 216 257 323 322 271 189 137 153 160 167 131 204 193 279 254 85 75 95 140 126 110 110 119 97 61 26 101 127 137 145 148 124 94 43 21 5 348 341
7 23 40 32 331 335 336 339 331 330 310 259 205 184 182 167 194 180 213 214 296 4 3 103 118 125 118 104 94 85 89 114 124 128 135 120 106 95 62 25 1 358 350
19 13 22 7 350 330 326 316 325 338 331 235 232 248 222 227 184 175 143 153 184 152 170 211 156 126 121 124 119 111 120 119 117 116 113 113 108 93 73 27 12 2 358
10 7 28 12 2 337 323 315 287 266 260 256 242 247 248 228 184 198 165 153 160 198 194 195 142 145 143 134 131 113 113 119 118 114 112 111 115 104 50 37 20 8 4
349 3 29 10 347 353 4 5 355 331 295 271 259 257 257 262 201 201 180 194 165 185 220 189 180 173 141 140 148 127 126 125 124 123 124 128 125 110 60 52 38 15 4
349 342 348 357 353 349 355 7 3 359 334 301 287 275 283 281 258 222 210 209 204 185 211 165 161 145 147 145 146 127 133 132 140 138 133 122 112 66 57 47 37 16 7
334 335 322 329 331 342 346 357 358 1 348 304 280 281 277 277 293 264 233 236 219 212 203 91 98 145 150 157 139 133 137 144 148 149 136 127 116 55 64 49 31 19 13
342 333 321 319 311 305 320 338 340 350 1 347 309 283 278 275 255 265 255 240 216 229 198 163 143 153 156 179 155 144 159 159 160 166 147 148 140 175 63 45 26 23 12
357 357 342 330 321 318 323 315 312 323 340 340 334 302 279 282 276 257 243 257 211 201 220 166 147 146 118 166 136 129 167 177 186 178 176 162 163 193 219 353 14 17 15
344 339 345 324 336 330 327 343 340 333 333 330 331 342 311 279 268 263 263 249 192 220 195 167 173 166 134 158 146 161 173 198 188 192 203 176 168 210 217 241 311 14 14
320 319 328 308 330 333 322 343 330 330 317 321 323 328 340 331 315 301 275 266 226 180 186 205 171 166 165 172 185 172 187 188 212 204 205 200 174 198 216 234 270 23 7
315 314 311 330 326 316 322 324 346 332 322 320 309 307 319 311 325 318 294 263 232 216 193 201 192 206 201 194 157 169 158 181 217 199 199 205 193 207 202 202 239 239 2
305 304 302 314 311 306 308 314 326 324 311 309 301 293 303 310 314 317 314 279 271 251 229 197 200 198 185 185 163 163 199 190 180 153 176 209 173 220 188 210 219 180 21
302 304 303 303 293 300 299 308 316 313 305 300 298 294 284 287 288 304 314 299 282 251 250 230 220 199 186 169 187 160 164 141 94 155 194 199 151 185 155 209 193 154 76
289 289 295 301 289 284 290 299 308 310 305 299 295 279 279 282 275 350 322 309 305 290 232 234 221 181 165 167 168 139 158 169 189 199 187 208 161 135 153 169 164 177 107
303 296 292 286 286 285 290 288 290 290 295 299 297 291 268 272 299 9 294 288 287 283 287 214 215 208 171 171 168 177 150 179 152 177 181 174 154 151 147 86 142 145 121